Gulkana, AK

5:06 PM AKDT on October 22, 2017 (GMT -0800)
Gulkana

Weather History for PAGK - February, 2014

Change the Weather History Date:

Monday, February 3, 2014

  Actual Average Record
Temperature  
Mean Temperature -8 °F -  
Max Temperature 0 °F 9 °F 38 °F (1981)
Min Temperature -16 °F -9 °F -51 °F (1968)
Degree Days  
Heating Degree Days 73    
Moisture  
Dew Point -15 °F    
Average Humidity 80    
Maximum Humidity 91    
Minimum Humidity 67    
Precipitation  
Precipitation 0.00 in - - ()
Sea Level Pressure  
Sea Level Pressure 30.74 in    
Wind  
Wind Speed 2 mph (NNW)    
Max Wind Speed 5 mph    
Max Gust Speed -    
Visibility 8 miles    
Events Fog    
Averages and records for this station are not official NWS values.
T = Trace of Precipitation, MM = Missing Value Source: NWS Daily Summary

Daily Weather History Graph

Daily Weather History Graph

Search for Another Location

Airport or City:

Trip Planner

Search our weather history database for the weather conditions in past years. The results will help you decide how hot, cold, wet, or windy it might be!

Date:

Astronomy

Feb. 03, 2014 Rise Set
Actual Time 9:02 AM AKST 4:50 PM AKST
Civil Twilight 8:11 AM AKST 5:41 PM AKST
Nautical Twilight 7:17 AM AKST 6:35 PM AKST
Astronomical Twilight 6:25 AM AKST 7:27 PM AKST
Moon 9:34 AM AKST (2/3) 11:37 PM AKST (2/3)
Length of Visible Light 9h 30m
Length of Day
7h 48m
Waxing Crescent, 21% of the Moon is Illuminated
Feb 3
Waxing Crescent
Feb 6
First Quarter
Feb 14
Full
Feb 22
Last Quarter
Feb 28
New

Hourly Weather History & Observations

Time (AKST) Temp. Windchill Dew Point Humidity Pressure Visibility Wind Dir Wind Speed Gust Speed Precip Events Conditions
12:53 AM -16.1 °F -28.6 °F -20.9 °F 79% 30.78 in 10.0 mi North 4.6 mph - N/A   Clear
1:53 AM -15.0 °F - -20.0 °F 78% 30.77 in 10.0 mi Calm Calm - N/A   Clear
2:53 AM -14.1 °F -26.3 °F -18.0 °F 82% 30.78 in 10.0 mi NW 4.6 mph - N/A   Clear
3:53 AM -14.1 °F - -20.0 °F 75% 30.78 in 10.0 mi Calm Calm - N/A   Clear
4:22 AM -14.1 °F -23.9 °F -18.9 °F 79% 30.54 in 10.0 mi NW 3.5 mph - N/A   Partly Cloudy
4:34 AM -14.1 °F - -18.9 °F 79% 30.55 in 10.0 mi Calm Calm - N/A   Mostly Cloudy
4:53 AM -14.1 °F -23.9 °F -18.9 °F 79% 30.78 in 10.0 mi NW 3.5 mph - N/A   Scattered Clouds
5:19 AM -13.0 °F - -18.0 °F 78% 30.55 in 10.0 mi Calm Calm - N/A   Mostly Cloudy
5:53 AM -14.1 °F - -18.9 °F 79% 30.79 in 10.0 mi Calm Calm - N/A   Mostly Cloudy
6:53 AM -15.0 °F -25.0 °F -20.9 °F 75% 30.80 in 10.0 mi North 3.5 mph - N/A   Overcast
7:25 AM -15.0 °F -25.0 °F -20.0 °F 78% 30.55 in 10.0 mi NW 3.5 mph - N/A   Overcast
7:53 AM -13.0 °F -22.7 °F -17.0 °F 82% 30.80 in 6.0 mi NW 3.5 mph - N/A   Overcast
8:45 AM -11.0 °F -20.4 °F -16.1 °F 78% 30.56 in 9.0 mi North 3.5 mph - N/A   Overcast
8:53 AM -11.0 °F -20.4 °F -16.1 °F 78% 30.81 in 9.0 mi North 3.5 mph - N/A   Overcast
9:06 AM -11.0 °F - -15.0 °F 83% 30.56 in 1.5 mi Calm Calm - N/A   Overcast
9:16 AM -11.0 °F - -14.1 °F 86% 30.57 in 0.5 mi Calm Calm - N/A Fog Light Freezing Fog
9:43 AM -9.9 °F - -13.0 °F 86% 30.57 in 0.5 mi Calm Calm - N/A Fog Light Freezing Fog
9:53 AM -9.9 °F -19.2 °F -13.0 °F 86% 30.82 in 2.5 mi North 3.5 mph - N/A   Overcast
10:01 AM -9.9 °F - -13.0 °F 86% 30.58 in 5.0 mi Calm Calm - N/A   Overcast
10:46 AM -8.0 °F - -11.0 °F 86% 30.58 in 1.8 mi Calm Calm - N/A   Overcast
10:53 AM -7.1 °F - -9.9 °F 87% 30.82 in 1.5 mi Calm Calm - N/A   Overcast
11:14 AM -7.1 °F - -9.0 °F 91% 30.58 in 3.0 mi Calm Calm - N/A   Overcast
11:53 AM -5.1 °F - -9.0 °F 83% 30.82 in 9.0 mi Calm Calm - N/A   Overcast
12:53 PM -2.9 °F - -6.0 °F 87% 30.81 in 10.0 mi Calm Calm - N/A   Mostly Cloudy
1:30 PM -2.9 °F - -7.1 °F 82% 30.58 in 10.0 mi Calm Calm - N/A   Scattered Clouds
1:53 PM -0.9 °F - -6.0 °F 79% 30.81 in 10.0 mi Calm Calm - N/A   Clear
2:53 PM -0.9 °F - -5.1 °F 83% 30.81 in 10.0 mi Calm Calm - N/A   Clear
3:53 PM -4.0 °F - -8.0 °F 83% 30.82 in 10.0 mi Calm Calm - N/A   Clear
4:53 PM -5.1 °F - -11.0 °F 76% 30.82 in 10.0 mi Calm Calm - N/A   Clear
5:53 PM -9.0 °F - -13.0 °F 83% 30.83 in 10.0 mi Calm Calm - N/A   Clear
6:53 PM -9.0 °F - -14.1 °F 79% 30.84 in 8.0 mi Calm Calm - N/A   Clear
7:53 PM -9.9 °F - -15.0 °F 78% 30.85 in 10.0 mi Calm Calm - N/A   Clear
8:53 PM -11.9 °F - -17.0 °F 78% 30.86 in 10.0 mi Calm Calm - N/A   Clear
9:53 PM -11.9 °F - -18.0 °F 74% 30.87 in 10.0 mi Calm Calm - N/A   Clear
10:53 PM -11.9 °F -21.5 °F -18.0 °F 74% 30.87 in 10.0 mi NW 3.5 mph - N/A   Clear
11:53 PM -14.1 °F - -18.9 °F 79% 30.89 in 10.0 mi Calm Calm - N/A   Clear